This demonstration page uses our WeatherBlox Daily Observations layout. Learn more.

Left ArrowRight Arrow

Hourly Observations for September 28, 2020

Temp ( °F °C ) Dew Point ( °F °C ) Humidity (%) Winds ( mph kmh ) Pressure ( in mb ) Visibility ( mi km ) Precip ( " mm )
12:53 am 00:53 Cloudy with Haze 64 17.8 50 10 60 60 NE 33 54 29.88 1012 6 10 0.00 0.00
1:53 am 01:53 Cloudy with Haze 64 17.8 46 7.8 52 52 NE 32 52 29.95 1014 4 6 0.00 0.00
2:05 am 02:05 Cloudy with Haze 64 17.8 43 6.1 46 46 NE 31 50 30.01 1016 3 5 0.00 0.00
2:14 am 02:14 Cloudy with Haze 64 17.8 42 5.6 45 45 NE 24 39 30.02 1017 3 4 0.00 0.00
2:21 am 02:21 Cloudy with Haze 62 16.7 42 5.6 48 48 NE 28 44 30.04 1017 3 5 0.00 0.00
2:28 am 02:28 Cloudy with Haze 64 17.8 42 5.6 45 45 NE 29 46 30.04 1017 3 4 0.00 0.00
2:36 am 02:36 Cloudy with Haze 64 17.8 41 5 43 43 NE 26 43 30.06 1018 3 5 0.00 0.00
2:53 am 02:53 Cloudy with Haze 64 17.8 40 4.4 41 41 NE 28 44 30.02 1017 4 6 0.00 0.00
3:07 am 03:07 Cloudy with Haze 64 17.8 40 4.4 41 41 NE 24 39 30.09 1019 5 8 0.00 0.00
3:53 am 03:53 Cloudy 64 17.8 38 3.3 38 38 NE 22 35 30.05 1018 9 14 0.00 0.00
4:53 am 04:53 Cloudy 64 17.8 37 2.8 37 37 NNE 18 30 30.06 1018 10 16 0.00 0.00
5:53 am 05:53 Cloudy 63 17.2 33 0.6 33 33 NE 16 26 30.10 1019 10 16 0.00 0.00
6:53 am 06:53 Cloudy 63 17.2 33 0.6 33 33 NNE 12 19 30.12 1020 10 16 0.00 0.00
7:53 am 07:53 Cloudy 62 16.7 33 0.6 34 34 NNE 12 19 30.16 1022 10 16 0.00 0.00
8:53 am 08:53 Cloudy 62 16.7 32 0 32 32 NNE 14 22 30.20 1023 10 16 0.00 0.00
9:53 am 09:53 Cloudy 63 17.2 32 0 31 31 N 15 24 30.22 1023 10 16 0.00 0.00
10:53 am 10:53 Cloudy 65 18.3 31 -0.6 28 28 NNE 12 19 30.23 1024 10 16 0.00 0.00
11:53 am 11:53 Cloudy 68 20 30 -1.1 24 24 NE 15 24 30.25 1024 10 16 0.00 0.00
12:53 pm 12:53 Cloudy 70 21.1 30 -1.1 23 23 NNE 10 17 30.24 1024 10 16 0.00 0.00
1:53 pm 13:53 Cloudy 72 22.2 29 -1.7 20 20 NNE 10 17 30.21 1023 10 16 0.00 0.00
2:53 pm 14:53 Cloudy 72 22.2 28 -2.2 19 19 NE 13 20 30.18 1022 9 14 0.00 0.00
3:53 pm 15:53 Mostly Cloudy 74 23.3 27 -2.8 17 17 N 15 24 30.16 1021 10 16 0.00 0.00
4:53 pm 16:53 Sunny 75 23.9 27 -2.8 17 17 NE 15 24 30.14 1021 10 16 0.00 0.00
5:53 pm 17:53 Sunny 75 23.9 27 -2.8 17 17 NNE 14 22 30.13 1020 10 16 0.00 0.00
6:53 pm 18:53 Sunny 73 22.8 26 -3.3 17 17 NE 18 30 30.15 1021 10 16 0.00 0.00
7:53 pm 19:53 Clear 69 20.6 25 -3.9 19 19 NE 13 20 30.17 1022 10 16 0.00 0.00
8:53 pm 20:53 Clear 66 18.9 24 -4.4 20 20 NE 12 19 30.20 1023 10 16 0.00 0.00
9:53 pm 21:53 Clear 61 16.1 25 -3.9 25 25 NE 8 13 30.23 1024 10 16 0.00 0.00
10:53 pm 22:53 Clear 57 13.9 25 -3.9 29 29 NE 7 11 30.26 1025 10 16 0.00 0.00
11:53 pm 23:53 Clear 54 12.2 25 -3.9 33 33 NNE 6 9 30.26 1025 10 16 0.00 0.00

Powered by AerisWeather